STARLINK-35523, 65910

Orbit data source: Space-Track

STARLINK-35523, 65910 is a payload satellite owned by SpaceX/Seattle (US) in LEO that was launched on Wed, 08 Oct 2025 UTC via an FALCON 9 launch vehicle from the Air Force Western Test Range (AFWTR). Payload-class satellites include a variety of spacecraft equipped with specific instruments for various scientific and technological missions. These include communications satellites like Starlink; space stations such as the ISS; scientific satellites like the Hubble; Earth observation satellites from companies like Planet Labs, Umbra, and HawkEye 360; GPS; miniature CubeSats for education and research; and military/defense satellites.

Loading next visibility...
Identifier
65910, 2025-225A
Orbit
LEO
Country
Flag of USUS
Related business
Manufacturer
SpaceX/Seattle
Mission
Operational Commercial Communications
Bus & Motor
STARLINK V2MO, Unknown motor
Mass
575 kg wet, ~530 kg dry
Launch date (UTC)
2025-10-08 (8 months ago)
Launch vehicle
FALCON 9
Launch site
Air Force Western Test Range (AFWTR)
Object type
Payload
Rocket body
Debris
Shape & HBR
Box + 2 Pan, 17.7 m
Radar Cross Section
36.964 m², Large (>1 m²)

Expand to show TLE details & history
Last TLE update: 11 hours ago

TLE from 11 hours ago
0 STARLINK-35523
1 65910U 25225A   26151.29681895  .00021136  00000-0  72346-3 0  9998
2 65910  53.1587 142.1196 0001049  84.1755 275.9365 15.30210724 37057
Epoch: 2026-05-31T07:07Z
TLE epoch observation values (Epoch: 2026-05-31T07:07:25.157Z)
Latitude
-0.00004°
Longitude
146.46423°
Altitude
476.008 km
Speed
7.629 km/s
True Right ascension
09h 28m 28s
True Declination
0° 00' 00"
Sunlit
Object was in daylight at epoch
Visualization orbit readout
Latitude
Unknown
Longitude
Unknown
Altitude
Unknown
Speed
Unknown
Apparent Right ascension
Unknown
Apparent Declination
Unknown
Sunlit
N/A
Visualization observer readout
Local Sidereal Time
04:02:04
Azimuth
Unknown
Elevation
Unknown
Doppler factor
Unknown
Orbital elements
Apogee altitude
476.159 km
Perigee altitude
474.721 km
Semi-major axis
6,853.577 km
Eccentricity
0.0001
Inclination
53.1587°
RAAN
142.1196°
Arg. of periapsis
84.1755°
True anomaly
275.92454°
Mean anomaly
275.9365°
Eccentric anomaly
275.93052°
Mean motion
3.82532 °/min
Orbital period
94.11 mins
BSTAR
0.00072346
Loading maneuver chart data...
Computing Atmospheric mass density...
Loading historical data...
Loading historical data...
Loading historical data...
Loading historical data...
Loading historical data...
Loading historical data...
Loading historical data...

Documentation

Showing up to 5 results
|